Weather in Kedrovka

Russia / Sverdlovsk Oblast     57°00′10″N   60°46′22″E
temp.,
°C
wind,
m/s
gust,
m/s
humid.,
%
clouds,
%
prec.,
mm/h
press.,
hPa
HPBL,
m
28 july, wed
wed2823:00+10nw26745 0.0 1011121
02:00+7nw278714 0.0 1012141
05:00+6wnw279212 0.0 1011168
08:00+11w4862100 0.0 1011897
11:00+13wnw4850100 0.0 10101673
14:00+10wnw487737 0.3 1011890
17:00+13wnw475493 0.4 10101485
20:00+12wnw3761100 0.0 1011477
29 july, thu
thu2923:00+11wnw38576 0.0 1012472
02:00+6w258841 0.0 1012104
05:00+6w399127 0.0 1012241
08:00+11w486588 0.0 1011570
11:00+17w584465 0.0 10081389
14:00+20w61139100 0.0 10072659
17:00+22w6114098 0.0 10062791
20:00+16nnw376754 0.3 1007299
30 july, fri
fri3023:00+11sw118628 0.4 100711
02:00+12ssw258898 0.0 1006101
05:00+13wsw2989100 0.4 1005234
08:00+15wsw3879100 0.0 1005397
11:00+20sw3456100 0.0 10031122
14:00+14sw2696100 1.1 1003359
17:00+13wsw3797100 1.6 1003446
20:00+15w3892100 0.1 1004626
31 july, sat
sat3123:00+14wsw249821 0.1 1004140
02:00+13wsw249845 0.0 100589
05:00+12wsw229811 0.1 100646
08:00+16w24886 0.0 1007290
11:00+22w366257 0.0 10061322
14:00+26w3645100 0.1 10052199
17:00+21wsw5968100 0.3 1006572
20:00+18sw399253 0.4 1006416
1 august, sun
sun123:00+16ssw389897 0.4 1005235
02:00+16ssw31298100 0.0 1004339
05:00+16sw3119847 0.1 1004407
08:00+17w499055 0.0 1006795
11:00+23wnw58525 0.0 10061438
14:00+25wnw594083 0.0 10062569
17:00+24w594487 0.0 10072240
20:00+20wnw310620 0.0 1008701